This demonstration page uses our WeatherBlox Daily Observations layout. Learn more.

38.88101, -77.10428

Hourly Observations for July 31, 2016

Temp ( °F °C ) Dew Point ( °F °C ) Humidity (%) Winds ( mph kmh ) Pressure ( in mb ) Visibility ( mi km ) Precip ( " mm )
12:09 am 00:09 Cloudy 76 24.4 73 22.8 91 91 Calm 29.97 1015 9 14.484096 0 0
12:36 am 00:36 Mostly Cloudy 75 24 72 22 89 89 Calm 29.97 1015 10 16.09344 0 0
12:52 am 00:52 Mostly Cloudy 76 24.4 72 22.2 88 88 Calm 29.97 1015 10 16.09344 0 0
1:13 am 01:13 Cloudy 76 24.4 72 22.2 88 88 Calm 29.97 1015 10 16.09344 0 0
1:52 am 01:52 Cloudy 76 24.4 73 22.8 91 91 N 3 6 29.94 1014 10 16.09344 0 0
2:01 am 02:01 Cloudy 76 24.4 73 22.8 91 91 NNE 3 6 29.94 1014 10 16.09344 0 0
2:20 am 02:20 Cloudy 76 24.4 73 22.8 91 91 NE 5 7 29.94 1014 10 16.09344 0 0
2:52 am 02:52 Cloudy 76 24.4 73 22.8 91 91 Calm 29.94 1014 10 16.09344 0 0
2:59 am 02:59 Cloudy 76 24.4 73 22.8 91 91 N 3 6 29.94 1014 10 16.09344 0 0
3:52 am 03:52 Mostly Cloudy 76 24.4 73 22.8 91 91 Calm 29.94 1014 10 16.09344 0 0
4:01 am 04:01 Partly Cloudy 76 24.4 72 22.2 88 88 N 3 6 29.94 1014 10 16.09344 0 0
4:52 am 04:52 Partly Cloudy 75 23.9 72 22.2 90 90 NNW 5 7 29.94 1014 10 16.09344 0 0
5:52 am 05:52 Partly Cloudy 75 23.9 72 22.2 90 90 E 7 11 29.97 1015 10 16.09344 0 0
6:39 am 06:39 Mostly Cloudy 75 23.9 72 22.2 90 90 NNE 3 6 30 1016 10 16.09344 0 0
6:45 am 06:45 Mostly Cloudy 75 23.9 72 22.2 90 90 N 5 7 30 1016 10 16.09344 0 0
6:52 am 06:52 Mostly Cloudy 76 24.4 72 22.2 88 88 NNW 3 6 30 1016 10 16.09344 0 0
7:08 am 07:08 Mostly Cloudy 75 24 73 23 94 94 NNW 3 6 30 1016 10 16.09344 0 0
7:23 am 07:23 Mostly Cloudy 77 25 72 22.2 85 85 Calm 30 1016 10 16.09344 0 0
7:52 am 07:52 Mostly Cloudy 77 25 72 22.2 85 85 N 3 6 30 1016 10 16.09344 0 0
8:52 am 08:52 Mostly Cloudy 80 26.7 72 22.2 76 76 N 3 6 30 1016 10 16.09344 0 0
9:52 am 09:52 Partly Cloudy 80 26.7 72 22.2 76 76 N 3 6 30 1016 10 16.09344 0 0
10:52 am 10:52 Mostly Cloudy 84 28.9 74 23.3 72 72 S 7 11 30.03 1017 10 16.09344 0 0
11:52 am 11:52 Mostly Cloudy 87 30.6 72 22.2 61 61 W 7 11 30 1016 10 16.09344 0 0
12:52 pm 12:52 Mostly Cloudy 90 32.2 72 22.2 56 56 N 6 9 30 1016 10 16.09344 0 0
1:52 pm 13:52 Mostly Cloudy 89 31.7 72 22.2 57 57 S 8 13 29.97 1015 10 16.09344 0 0
2:52 pm 14:52 Partly Cloudy 89 31.7 73 22.8 59 59 S 8 13 29.97 1015 10 16.09344 0 0
3:52 pm 15:52 Partly Cloudy 90 32.2 72 22.2 56 56 N 5 7 29.94 1014 10 16.09344 0 0
4:52 pm 16:52 Partly Cloudy 91 32.8 74 23.3 57 57 S 13 20 29.94 1014 10 16.09344 0 0
5:14 pm 17:14 Partly Cloudy 90 32 73 23 59 59 S 12 19 29.94 1014 10 16.09344 0 0
5:29 pm 17:29 Mostly Cloudy with Thunderstorms 87 30.6 71 21.7 59 59 NNW 22 35 29.97 1015 10 16.09344 0 0
5:41 pm 17:41 Mostly Cloudy with Light Thunderstorms 84 28.9 69 20.6 61 61 NW 18 30 29.97 1015 10 16.09344 0.001 0.001
5:52 pm 17:52 Mostly Cloudy with Light Thunderstorms 80 26.7 72 22.2 76 76 NNW 15 24 29.97 1015 8 12.874752 0.001 0.001
6:52 pm 18:52 Mostly Cloudy 82 27.8 71 21.7 69 69 ENE 3 6 29.97 1015 10 16.09344 0.001 0.001
7:52 pm 19:52 Mostly Cloudy 83 28.3 71 21.7 67 67 W 5 7 29.97 1015 10 16.09344 0 0
8:52 pm 20:52 Mostly Cloudy 82 27.8 72 22.2 72 72 S 5 7 29.97 1015 10 16.09344 0 0
9:52 pm 21:52 Mostly Cloudy 83 28.3 72 22.2 70 70 Calm 30 1016 10 16.09344 0 0
10:52 pm 22:52 Partly Cloudy 81 27.2 73 22.8 77 77 W 5 7 30 1016 10 16.09344 0 0
11:52 pm 23:52 Partly Cloudy 81 27.2 71 21.7 72 72 W 5 7 30.03 1017 10 16.09344 0 0

Powered by AerisWeather